CW3363 Weather Reports


Display with metric or nautical units.
time (UTC)temp
F
wind
direction
speed
MPH
gust
MPH
rain 1hr
in
rain 24hr
in
rain mn
in
humidity
%
barometer
mb
20260507150837 64 347 2.0 4.0 0.00 0.00 0.00 86 1016.5
20260507150401 64 104 1.0 7.0 0.00 0.00 0.00 86 1016.8
20260507145822 64 49 2.0 9.0 0.00 0.00 0.00 86 1016.8
20260507145346 64 44 2.0 9.0 0.00 0.00 0.00 86 1016.8
20260507144849 64 76 1.0 10.0 0.00 0.00 0.00 87 1016.5
20260507144333 63 68 2.0 10.0 0.00 0.00 0.00 86 1016.5
20260507143835 64 79 2.0 7.0 0.00 0.00 0.00 86 1016.5
20260507143339 64 14 2.0 6.0 0.00 0.00 0.00 86 1015.9
20260507142843 64 142 2.0 9.0 0.00 0.00 0.00 86 1015.9
20260507142329 64 360 1.0 11.0 0.00 0.00 0.00 86 1015.9
20260507141834 64 71 2.0 11.0 0.00 0.00 0.00 86 1015.8
20260507141358 64 240 2.0 6.0 0.00 0.00 0.00 86 1015.8
20260507140824 64 64 2.0 6.0 0.00 0.00 0.00 86 1015.8
20260507140328 63 47 2.0 9.0 0.00 0.00 0.00 87 1016.0
20260507135850 63 305 4.0 9.0 0.00 0.00 0.00 87 1016.0
20260507135334 63 355 3.0 9.0 0.00 0.00 0.00 87 1016.0
20260507134837 63 43 3.0 9.0 0.00 0.00 0.00 87 1016.5
20260507134401 63 240 1.0 7.0 0.00 0.00 0.00 88 1016.5
20260507133825 63 60 3.0 7.0 0.00 0.00 0.00 88 1016.5
20260507133329 63 10 4.0 6.0 0.00 0.00 0.00 89 1016.7
20260507132832 63 347 3.0 7.0 0.00 0.00 0.00 89 1016.7
20260507132341 63 295 2.0 7.0 0.00 0.00 0.00 89 1016.7
20260507131824 63 22 2.0 4.0 0.00 0.00 0.00 89 1016.6
20260507131328 63 57 2.0 5.0 0.00 0.00 0.00 89 1016.6
20260507130853 63 74 1.0 5.0 0.00 0.00 0.00 88 1016.6
20260507130336 63 334 2.0 9.0 0.00 0.00 0.00 88 1016.4
20260507125823 63 344 3.0 9.0 0.00 0.00 0.00 88 1016.4
20260507125327 64 87 1.0 6.0 0.00 0.00 0.00 88 1016.4
20260507124852 64 343 2.0 6.0 0.00 0.00 0.00 88 1015.9
20260507124337 64 331 2.0 6.0 0.00 0.00 0.00 88 1015.9
20260507123840 64 360 2.0 6.0 0.00 0.00 0.00 88 1015.9
20260507123324 64 299 2.0 8.0 0.00 0.00 0.00 88 1015.5
20260507122828 64 314 2.0 10.0 0.00 0.00 0.00 88 1015.5
20260507122352 64 330 1.0 10.0 0.00 0.00 0.00 88 1015.5
20260507121836 64 351 2.0 5.0 0.00 0.00 0.00 88 1015.3
20260507121339 65 35 2.0 5.0 0.00 0.00 0.00 88 1015.3
20260507120824 65 331 1.0 5.0 0.00 0.00 0.00 88 1015.3
20260507120328 65 88 2.0 5.0 0.00 0.00 0.00 88 1015.0
20260507115834 65 48 2.0 5.0 0.00 0.00 0.00 88 1015.0
20260507115321 65 357 2.0 5.0 0.00 0.00 0.00 88 1015.0
20260507114846 65 2 1.0 5.0 0.00 0.00 0.00 88 1014.9
20260507114349 65 36 3.0 5.0 0.00 0.00 0.00 88 1014.9
20260507113855 65 352 2.0 6.0 0.00 0.00 0.00 88 1014.9
20260507113337 65 355 3.0 6.0 0.00 0.00 0.00 87 1014.4
20260507112820 65 15 2.0 4.0 0.00 0.00 0.00 88 1014.4
20260507112328 66 76 1.0 4.0 0.00 0.00 0.00 87 1014.4
20260507111835 66 54 2.0 4.0 0.00 0.00 0.00 87 1014.6
20260507111338 66 30 1.0 4.0 0.00 0.00 0.00 88 1014.6
20260507110821 66 44 1.0 3.0 0.00 0.00 0.00 88 1014.6
20260507110329 66 339 1.0 3.0 0.00 0.00 0.00 88 1014.3
20260507105832 66 310 2.0 3.0 0.00 0.00 0.00 88 1014.3
20260507105339 66 56 1.0 4.0 0.00 0.00 0.00 87 1014.3
20260507104828 66 9 1.0 4.0 0.00 0.00 0.00 87 1013.9
20260507104351 66 9 1.0 2.0 0.00 0.00 0.00 87 1013.9
20260507103839 66 2 0.0 1.0 0.00 0.00 0.00 88 1013.9
20260507103322 66 2 0.0 2.0 0.00 0.00 0.00 88 1014.2
20260507102827 66 94 1.0 4.0 0.00 0.00 0.00 88 1014.2
20260507102332 66 38 2.0 4.0 0.00 0.00 0.00 88 1014.2
20260507101836 66 66 0.0 3.0 0.00 0.00 0.00 88 1013.8
20260507101324 66 54 2.0 4.0 0.00 0.00 0.00 88 1013.8
20260507100831 66 55 0.0 4.0 0.00 0.00 0.00 88 1013.8
20260507100336 66 62 1.0 3.0 0.00 0.00 0.00 88 1013.8
20260507095839 66 77 2.0 5.0 0.00 0.00 0.00 88 1013.8
20260507095327 66 59 1.0 5.0 0.00 0.00 0.00 87 1013.8
20260507094851 66 59 3.0 5.0 0.00 0.00 0.00 87 1013.7
20260507094335 66 67 2.0 4.0 0.00 0.00 0.00 88 1013.7
20260507093841 66 7 1.0 3.0 0.00 0.00 0.00 87 1013.7
20260507093325 66 59 1.0 4.0 0.00 0.00 0.00 88 1013.3
20260507092828 66 34 1.0 5.0 0.00 0.00 0.00 87 1013.3
20260507092332 66 54 0.0 5.0 0.00 0.00 0.00 87 1013.3
20260507091836 66 34 2.0 5.0 0.00 0.00 0.00 87 1013.4
20260507091323 66 10 1.0 4.0 0.00 0.00 0.00 87 1013.4
20260507090827 66 63 1.0 6.0 0.00 0.00 0.00 87 1013.4
20260507090331 66 25 2.0 6.0 0.00 0.00 0.00 87 1013.4
20260507085834 66 51 1.0 3.0 0.00 0.00 0.00 87 1013.4
20260507085341 66 64 1.0 5.0 0.00 0.00 0.00 87 1013.4
20260507084825 66 86 3.0 5.0 0.00 0.00 0.00 87 1013.7
20260507084331 66 352 1.0 4.0 0.00 0.00 0.00 87 1013.7
20260507083839 67 64 2.0 4.0 0.00 0.00 0.00 87 1013.7
20260507083324 67 321 1.0 4.0 0.00 0.00 0.00 87 1013.3
20260507082826 66 62 1.0 4.0 0.00 0.00 0.00 87 1013.3
20260507082330 66 338 2.0 6.0 0.00 0.00 0.00 87 1013.3
20260507081838 67 321 3.0 6.0 0.00 0.00 0.00 86 1013.4
20260507081341 67 319 1.0 4.0 0.00 0.00 0.00 87 1013.4
20260507080825 67 342 2.0 4.0 0.00 0.00 0.00 86 1013.4
20260507080332 67 326 1.0 4.0 0.00 0.00 0.00 86 1013.4
20260507075855 67 332 0.0 5.0 0.00 0.00 0.00 86 1013.4
20260507075337 67 52 1.0 5.0 0.00 0.00 0.00 86 1013.4
20260507074823 67 57 1.0 5.0 0.00 0.00 0.00 86 1013.8
20260507074330 67 30 0.0 5.0 0.00 0.00 0.00 86 1013.8
20260507073837 67 15 1.0 5.0 0.00 0.00 0.00 86 1013.8
20260507073323 67 333 3.0 5.0 0.00 0.00 0.00 86 1013.8
20260507072848 67 330 1.0 4.0 0.00 0.00 0.00 86 1013.8
20260507072330 67 10 1.0 5.0 0.00 0.00 0.00 86 1013.8
20260507071837 67 9 1.0 5.0 0.00 0.00 0.00 85 1014.1
20260507071323 67 333 1.0 5.0 0.00 0.00 0.00 85 1014.1
20260507070824 67 10 2.0 8.0 0.00 0.00 0.00 85 1014.1
20260507070328 67 9 1.0 8.0 0.00 0.00 0.00 85 1013.8
20260507065831 67 322 3.0 7.0 0.00 0.00 0.00 85 1013.8
20260507065355 67 4 1.0 5.0 0.00 0.00 0.00 85 1013.8
20260507064837 67 285 2.0 6.0 0.00 0.00 0.00 85 1014.0
20260507064323 67 53 3.0 6.0 0.00 0.00 0.00 85 1014.0
20260507063826 67 335 2.0 6.0 0.00 0.00 0.00 85 1014.0
20260507063351 67 295 3.0 5.0 0.00 0.00 0.00 85 1013.9
20260507062839 67 338 2.0 5.0 0.00 0.00 0.00 85 1013.9
20260507062324 67 9 2.0 7.0 0.00 0.00 0.00 84 1013.9
20260507061827 67 13 3.0 7.0 0.00 0.00 0.00 84 1013.5
20260507061331 67 9 2.0 5.0 0.00 0.00 0.00 84 1013.5
20260507060834 68 9 2.0 5.0 0.00 0.00 0.00 84 1013.5
20260507060339 68 113 1.0 7.0 0.00 0.00 0.00 84 1013.6
20260507055822 68 4 3.0 7.0 0.00 0.00 0.00 84 1013.6
20260507055326 68 348 3.0 5.0 0.00 0.00 0.00 83 1013.6
20260507054833 68 1 3.0 5.0 0.00 0.00 0.00 84 1013.6
20260507054337 68 359 2.0 5.0 0.00 0.00 0.00 84 1013.6
20260507053902 68 9 1.0 5.0 0.00 0.00 0.00 84 1013.6
20260507053329 69 324 2.0 5.0 0.00 0.00 0.00 84 1013.4
20260507052834 69 343 0.0 6.0 0.00 0.00 0.00 84 1013.4
20260507052357 69 49 1.0 6.0 0.00 0.00 0.00 83 1013.4
20260507051841 69 323 2.0 5.0 0.00 0.00 0.00 83 1013.4
20260507051325 69 338 1.0 6.0 0.00 0.00 0.00 83 1013.4
20260507050831 69 334 3.0 6.0 0.00 0.00 0.00 83 1013.4
20260507050335 69 11 1.0 5.0 0.00 0.00 0.00 84 1013.4
20260507045838 69 340 3.0 6.0 0.00 0.00 0.00 83 1013.4
20260507045324 69 10 4.0 6.0 0.00 0.00 0.00 83 1013.4
20260507044828 69 9 1.0 7.0 0.00 0.00 0.00 83 1013.3
20260507044334 70 37 1.0 7.0 0.00 0.00 0.00 83 1013.3
20260507043823 70 343 1.0 6.0 0.00 0.00 0.00 83 1013.3
20260507043346 70 336 3.0 4.0 0.00 0.00 0.00 83 1013.3
20260507042830 70 340 1.0 3.0 0.00 0.00 0.00 83 1013.3
20260507042334 70 6 0.0 6.0 0.00 0.00 0.00 83 1013.3
20260507041838 70 2 2.0 4.0 0.00 0.00 0.00 83 1013.3
20260507041322 70 342 2.0 5.0 0.00 0.00 0.00 83 1013.3
20260507040829 70 358 1.0 10.0 0.00 0.00 0.00 83 1013.3
20260507040354 70 343 3.0 10.0 0.00 0.00 0.00 83 1013.3
20260507035859 70 311 1.0 13.0 0.00 0.00 0.00 83 1013.3
20260507035322 70 314 3.0 13.0 0.00 0.00 0.00 83 1013.3
20260507034827 71 14 3.0 9.0 0.00 0.00 0.00 83 1013.2
20260507034331 71 352 2.0 9.0 0.00 0.00 0.00 83 1013.2
20260507033835 71 6 3.0 9.0 0.00 0.00 0.00 83 1013.2
20260507033359 71 9 3.0 9.0 0.00 0.00 0.00 83 1012.8
20260507032827 71 319 2.0 7.0 0.00 0.00 0.00 83 1012.8
20260507032331 71 338 4.0 7.0 0.00 0.00 0.00 83 1012.8
20260507031835 71 331 2.0 8.0 0.00 0.00 0.00 83 1012.4
20260507031339 72 293 2.0 9.0 0.00 0.00 0.00 83 1012.4
20260507030823 72 346 2.0 9.0 0.00 0.00 0.00 83 1012.4
20260507030326 72 10 3.0 6.0 0.00 0.00 0.00 83 1012.3
20260507025830 72 334 0.0 7.0 0.00 0.00 0.00 83 1012.3
20260507025337 72 37 2.0 7.0 0.00 0.00 0.00 83 1012.3
20260507024825 72 15 1.0 5.0 0.00 0.00 0.00 83 1012.0
20260507024349 73 4 2.0 6.0 0.00 0.00 0.00 83 1012.0
20260507023834 73 326 2.0 11.0 0.00 0.00 0.00 84 1012.0
20260507023338 73 10 3.0 11.0 0.00 0.00 0.00 84 1011.7
20260507022846 73 345 1.0 8.0 0.00 0.00 0.00 83 1011.7
20260507022336 73 21 2.0 4.0 0.00 0.00 0.00 84 1011.7
20260507021841 73 338 1.0 4.0 0.00 0.00 0.00 84 1011.2
20260507021325 73 315 2.0 5.0 0.00 0.00 0.00 84 1011.2
20260507020848 73 9 2.0 4.0 0.00 0.00 0.00 84 1011.2
20260507020334 74 11 2.0 7.0 0.00 0.00 0.00 84 1011.1
20260507015837 74 350 1.0 7.0 0.00 0.00 0.00 84 1011.1
20260507015325 74 290 0.0 5.0 0.00 0.00 0.00 84 1011.1
20260507014832 74 316 2.0 5.0 0.00 0.00 0.00 84 1010.8
20260507014335 74 319 3.0 6.0 0.00 0.00 0.00 83 1010.8
20260507013841 74 355 2.0 6.0 0.00 0.00 0.00 83 1010.8
20260507013323 74 99 2.0 5.0 0.00 0.00 0.00 84 1010.6
20260507012825 74 344 2.0 8.0 0.00 0.00 0.00 84 1010.6
20260507012329 74 330 3.0 8.0 0.00 0.00 0.00 83 1010.6
20260507011838 74 352 1.0 5.0 0.00 0.00 0.00 83 1010.3
20260507011403 75 333 2.0 5.0 0.00 0.00 0.00 83 1010.3
20260507010825 75 11 2.0 6.0 0.00 0.00 0.00 83 1010.3
20260507010330 75 357 3.0 9.0 0.00 0.00 0.00 84 1009.8
20260507005835 75 346 2.0 12.0 0.00 0.00 0.00 84 1009.8
20260507005322 75 307 3.0 12.0 0.00 0.00 0.00 84 1009.8
20260507004831 76 312 5.0 11.0 0.00 0.00 0.00 84 1009.7
20260507004337 76 345 4.0 11.0 0.00 0.00 0.00 84 1009.7
20260507003843 76 342 3.0 12.0 0.00 0.00 0.00 84 1009.7
20260507003327 77 322 4.0 12.0 0.00 0.00 0.00 84 1009.5
20260507002834 77 82 3.0 10.0 0.00 0.00 0.00 84 1009.5
20260507002323 77 318 3.0 10.0 0.00 0.00 0.00 83 1009.5
20260507001829 78 37 4.0 11.0 0.00 0.00 0.00 82 1009.1
20260507001335 80 49 2.0 14.0 0.00 0.00 0.00 83 1009.1
20260507000840 81 324 8.0 14.0 0.00 0.00 0.00 81 1009.1
20260507000328 84 305 0.0 3.0 0.00 0.00 0.00 84 1008.9
20260506235831 84 306 0.0 4.0 0.00 0.00 0.00 84 1008.9
20260506235338 84 306 2.0 4.0 0.00 0.00 0.00 83 1008.9
20260506234824 84 305 0.0 2.0 0.00 0.00 0.00 83 1008.8
20260506234332 84 306 1.0 2.0 0.00 0.00 0.00 83 1008.8
20260506233839 84 306 0.0 2.0 0.00 0.00 0.00 83 1008.8
20260506233329 84 306 0.0 2.0 0.00 0.00 0.00 83 1008.6
20260506232835 84 306 0.0 2.0 0.00 0.00 0.00 83 1008.6
20260506232359 84 306 0.0 4.0 0.00 0.00 0.00 83 1008.6
20260506231846 84 306 0.0 4.0 0.00 0.00 0.00 83 1008.6
20260506231330 84 340 1.0 5.0 0.00 0.00 0.00 83 1008.6
20260506230835 84 351 1.0 5.0 0.00 0.00 0.00 82 1008.6
20260506230340 84 314 2.0 4.0 0.00 0.00 0.00 82 1008.6
20260506225843 84 312 1.0 4.0 0.00 0.00 0.00 82 1008.6
20260506225331 84 319 2.0 4.0 0.00 0.00 0.00 82 1008.6
20260506224837 85 324 1.0 4.0 0.00 0.00 0.00 82 1008.6
20260506224343 85 321 2.0 4.0 0.00 0.00 0.00 82 1008.6
20260506223829 85 316 3.0 3.0 0.00 0.00 0.00 81 1008.6
20260506223335 86 315 1.0 4.0 0.00 0.00 0.00 80 1008.5
20260506222902 86 311 2.0 4.0 0.00 0.00 0.00 78 1008.5
20260506222326 86 199 1.0 3.0 0.00 0.00 0.00 77 1008.5
20260506221836 86 185 0.0 2.0 0.00 0.00 0.00 77 1008.4
20260506221322 86 185 0.0 4.0 0.00 0.00 0.00 77 1008.4
20260506220826 86 185 3.0 4.0 0.00 0.00 0.00 75 1008.4
20260506220332 86 247 1.0 4.0 0.00 0.00 0.00 76 1008.4
20260506215856 87 253 1.0 4.0 0.00 0.00 0.00 75 1008.4
20260506215321 87 295 2.0 4.0 0.00 0.00 0.00 75 1008.4
20260506214849 87 259 1.0 5.0 0.00 0.00 0.00 76 1008.5
20260506214333 87 250 1.0 5.0 0.00 0.00 0.00 75 1008.5
20260506213819 87 247 0.0 3.0 0.00 0.00 0.00 76 1008.5
20260506213327 86 241 0.0 4.0 0.00 0.00 0.00 78 1008.6
20260506212836 86 270 2.0 5.0 0.00 0.00 0.00 76 1008.6
20260506212342 86 237 2.0 5.0 0.00 0.00 0.00 76 1008.6
20260506211828 87 184 3.0 7.0 0.00 0.00 0.00 75 1008.6
20260506211334 87 197 3.0 7.0 0.00 0.00 0.00 76 1008.6
20260506210822 87 172 2.0 11.0 0.00 0.00 0.00 75 1008.6
20260506210326 87 222 4.0 11.0 0.00 0.00 0.00 74 1008.6
20260506205828 88 213 0.0 6.0 0.00 0.00 0.00 72 1008.6
20260506205337 88 155 2.0 6.0 0.00 0.00 0.00 72 1008.6
20260506204823 87 157 0.0 4.0 0.00 0.00 0.00 76 1009.0
20260506204331 86 165 1.0 3.0 0.00 0.00 0.00 76 1009.0
20260506203837 86 155 1.0 3.0 0.00 0.00 0.00 76 1009.0
20260506203401 86 247 1.0 3.0 0.00 0.00 0.00 78 1009.1
20260506202826 85 247 1.0 4.0 0.00 0.00 0.00 78 1009.1
20260506202331 85 127 1.0 4.0 0.00 0.00 0.00 78 1009.1
20260506201835 85 182 2.0 4.0 0.00 0.00 0.00 77 1009.1
20260506201326 86 187 3.0 4.0 0.00 0.00 0.00 77 1009.1
20260506200831 86 128 2.0 4.0 0.00 0.00 0.00 76 1009.1
20260506200335 86 336 1.0 5.0 0.00 0.00 0.00 77 1009.1
20260506195822 86 159 3.0 7.0 0.00 0.00 0.00 76 1009.1
20260506195326 85 172 3.0 7.0 0.00 0.00 0.00 76 1009.1
20260506194830 85 209 3.0 8.0 0.00 0.00 0.00 77 1009.2
20260506194335 85 143 5.0 8.0 0.00 0.00 0.00 77 1009.2
20260506193900 86 196 2.0 6.0 0.00 0.00 0.00 78 1009.2
20260506193324 86 195 3.0 5.0 0.00 0.00 0.00 77 1009.4
20260506192831 86 187 3.0 8.0 0.00 0.00 0.00 75 1009.4
20260506192336 87 138 3.0 6.0 0.00 0.00 0.00 76 1009.4
20260506191821 87 217 3.0 9.0 0.00 0.00 0.00 75 1009.7
20260506191326 86 184 3.0 9.0 0.00 0.00 0.00 76 1009.7
20260506190836 85 203 2.0 6.0 0.00 0.00 0.00 80 1009.7
20260506190322 85 190 0.0 7.0 0.00 0.00 0.00 79 1009.9
20260506185825 84 177 5.0 7.0 0.00 0.00 0.00 80 1009.9
20260506185332 84 138 4.0 8.0 0.00 0.00 0.00 81 1009.9
20260506184837 84 132 6.0 8.0 0.00 0.00 0.00 80 1010.0
20260506184320 85 246 1.0 6.0 0.00 0.00 0.00 79 1010.0
20260506183848 85 189 4.0 6.0 0.00 0.00 0.00 78 1010.0
20260506183354 85 204 2.0 9.0 0.00 0.00 0.00 78 1010.2
20260506182857 85 176 5.0 9.0 0.00 0.00 0.00 78 1010.2
20260506182400 85 183 1.0 6.0 0.00 0.00 0.00 79 1010.2
20260506181823 84 213 4.0 6.0 0.00 0.00 0.00 80 1010.5
20260506181328 84 289 1.0 4.0 0.00 0.00 0.00 80 1010.5
20260506180834 84 175 1.0 4.0 0.00 0.00 0.00 81 1010.5
20260506180324 83 149 2.0 7.0 0.00 0.00 0.00 82 1010.8
20260506175828 83 144 5.0 7.0 0.00 0.00 0.00 82 1010.8
20260506175338 83 157 1.0 5.0 0.00 0.00 0.00 82 1010.8
20260506174823 82 189 0.0 5.0 0.00 0.00 0.00 83 1011.2
20260506174329 82 140 3.0 5.0 0.00 0.00 0.00 84 1011.2
20260506173834 82 158 2.0 5.0 0.00 0.00 0.00 84 1011.2
20260506173339 82 141 2.0 7.0 0.00 0.00 0.00 84 1011.2
20260506172825 82 144 5.0 7.0 0.00 0.00 0.00 83 1011.2
20260506172330 82 133 4.0 6.0 0.00 0.00 0.00 83 1011.2
20260506171834 82 153 3.0 5.0 0.00 0.00 0.00 83 1011.4
20260506171339 82 180 0.0 3.0 0.00 0.00 0.00 84 1011.4
20260506170826 82 189 1.0 5.0 0.00 0.00 0.00 84 1011.4
20260506170352 81 189 2.0 5.0 0.00 0.00 0.00 84 1011.2
20260506165834 81 172 3.0 6.0 0.00 0.00 0.00 85 1011.2
20260506165322 81 131 3.0 9.0 0.00 0.00 0.00 85 1011.2
20260506164831 81 127 5.0 9.0 0.00 0.00 0.00 84 1011.2
20260506164337 81 181 3.0 9.0 0.00 0.00 0.00 85 1011.2
20260506163902 81 150 5.0 7.0 0.00 0.00 0.00 85 1011.2
20260506163327 81 173 3.0 7.0 0.00 0.00 0.00 85 1011.2
20260506162835 81 132 4.0 8.0 0.00 0.00 0.00 84 1011.2
20260506162343 81 195 3.0 8.0 0.00 0.00 0.00 85 1011.2
20260506161828 81 123 5.0 7.0 0.00 0.00 0.00 85 1010.7
20260506161334 81 132 4.0 6.0 0.00 0.00 0.00 85 1010.7
20260506160821 81 132 2.0 7.0 0.00 0.00 0.00 85 1010.7
20260506160329 81 144 4.0 7.0 0.00 0.00 0.00 85 1010.7
20260506155823 81 184 3.0 6.0 0.00 0.00 0.00 85 1010.7
20260506155327 81 198 3.0 6.0 0.00 0.00 0.00 86 1010.7
20260506154833 81 176 2.0 7.0 0.00 0.00 0.00 86 1010.7
20260506154338 80 170 3.0 7.0 0.00 0.00 0.00 85 1010.7
20260506153841 81 127 3.0 5.0 0.00 0.00 0.00 85 1010.7
20260506153326 81 134 1.0 6.0 0.00 0.00 0.00 85 1010.7
20260506152830 80 190 3.0 6.0 0.00 0.00 0.00 86 1010.7
20260506152335 80 140 2.0 6.0 0.00 0.00 0.00 86 1010.7
20260506151843 80 136 4.0 8.0 0.00 0.00 0.00 85 1010.3
20260506151327 80 142 5.0 8.0 0.00 0.00 0.00 86 1010.3